Location: Greenwich
(51.4790°N, 0.0090°E)
Time: 19:10:53
(UTC+01:00)

Vanguard 3 - All Passes

Search period start: 19 April 2024 00:00
Search period end: 29 April 2024 00:00
Orbit: 510 x 3235 km, 33.3° (Epoch: 18 April)

Date Brightness Start Highest point End Pass type
(mag) Time Alt. Az. Time Alt. Az. Time Alt. Az.
19 Apr - 03:27:04 10° S 03:30:27 11° SSE 03:33:29 10° SE visible
19 Apr - 05:34:31 10° SSW 05:42:09 19° S 05:47:40 10° SE daylight
19 Apr - 07:47:25 10° SW 07:53:02 18° SSW 07:57:12 10° SSE daylight
20 Apr - 04:16:21 10° SSW 04:24:29 18° SSE 04:30:36 10° SE visible
20 Apr - 06:28:03 10° SW 06:35:57 22° S 06:41:26 10° SE daylight
20 Apr - 08:42:27 10° SW 08:46:21 14° SSW 08:49:29 10° S daylight
21 Apr - 02:59:31 10° S 03:06:30 15° SSE 03:12:16 10° SE visible
21 Apr - 05:08:55 10° SW 05:18:27 23° S 05:25:04 10° SE visible
21 Apr - 07:22:27 10° WSW 07:29:33 21° SSW 07:34:32 10° SSE daylight
22 Apr - 03:50:18 10° SSW 04:00:32 22° SSE 04:08:01 10° ESE visible
22 Apr - 06:02:44 10° SW 06:12:18 25° S 06:18:42 10° SE daylight
22 Apr - 08:17:36 10° WSW 08:22:50 17° SSW 08:26:49 10° SSE daylight
23 Apr - 02:32:50 10° S 02:42:20 18° SSE 02:49:54 10° ESE visible
23 Apr - 04:43:15 10° SW 04:54:33 27° S 05:02:15 10° ESE visible
23 Apr - 06:57:19 10° WSW 07:05:54 24° SSW 07:11:43 10° SE daylight
24 Apr - 01:17:58 10° SSE 01:24:02 13° SE 01:29:28 10° SE visible
24 Apr - 03:24:19 10° SSW 03:36:24 25° SSE 03:45:07 10° ESE visible
24 Apr - 05:37:17 10° SW 05:48:26 29° S 05:55:46 10° SE daylight
24 Apr - 07:52:35 10° WSW 07:59:10 19° SSW 08:03:59 10° SSE daylight
25 Apr - 02:06:30 10° SSW 02:17:58 21° SSE 02:27:02 10° ESE visible
25 Apr - 04:17:32 10° SW 04:30:26 30° S 04:39:12 10° ESE visible
25 Apr - 06:32:02 10° WSW 06:42:04 26° SSW 06:48:44 10° SE daylight
25 Apr - 08:49:36 10° SW 08:52:03 11° SW 08:54:12 10° SSW daylight
26 Apr - 00:50:43 10° S 00:59:29 15° SE 01:07:09 10° ESE visible
26 Apr - 02:58:24 10° SSW 03:12:02 28° SSE 03:21:58 10° ESE visible
26 Apr - 05:11:44 10° WSW 05:24:22 32° S 05:32:40 10° SE daylight
26 Apr - 07:27:24 10° WSW 07:35:20 21° SSW 07:40:58 10° SSE daylight
27 Apr - 01:40:22 10° SSW 01:53:22 24° SSE 02:03:48 10° ESE visible
27 Apr - 03:51:48 10° SW 04:06:07 33° S 04:15:57 10° ESE visible
27 Apr - 06:06:36 10° WSW 06:18:01 29° SSW 06:25:35 10° SE daylight
27 Apr - 08:24:12 10° WSW 08:28:10 13° SW 08:31:28 10° SSW daylight
28 Apr - 00:24:09 10° S 00:34:44 18° SE 00:44:05 10° ESE visible
28 Apr - 02:32:33 10° SW 02:47:27 31° SSE 02:58:32 10° ESE visible
28 Apr - 04:46:07 10° WSW 05:00:05 34° S 05:09:23 10° SE visible
28 Apr - 07:02:04 10° WSW 07:11:18 22° SSW 07:17:47 10° SSE daylight
28 Apr - 23:13:16 10° SE 23:16:18 11° SE 23:19:17 10° SE visible
